Regional Weather Roundup
Issued by NWS

Home | Current Version | Previous Version | Graphics & Text | Print | Product List | Glossary On
Versions: 1 2 3 4 5 6 7 8 9 10 11 12 13 14 15 16 17 18 19 20 21 22 23 24 25 26 27 28 29 30 31 32 33 34 35 36 37 38 39 40 41 42 43 44 45 46 47 48 49 50
221
ASUS43 KLMK 262110
RWRKY
KENTUCKY REGIONAL WEATHER ROUNDUP
NATIONAL WEATHER SERVICE LOUISVILLE KY
500 PM EDT MON JUN 26 2017

NOTE "FAIR" INDICATES FEW OR NO CLOUDS BELOW 12,000 FEET
WITH NO SIGNIFICANT WEATHER AND/OR OBSTRUCTIONS TO VISIBILITY.

KYZ001>023-026-027-061>063-070>075-262200-
WESTERN AND SOUTH CENTRAL KENTUCKY

CITY           SKY/WX    TMP DP  RH WIND       PRES   REMARKS
PADUCAH        SUNNY     80  49  33 W3        30.12F
HENDERSON      SUNNY     79  50  36 NW12      30.14F
OWENSBORO      MOSUNNY   80  50  34 N8        30.14F
HOPKINSVILLE   SUNNY     78  52  40 N7        30.12F
BOWLING GREEN  SUNNY     78  50  37 NW8       30.13F
GLASGOW        SUNNY     78  46  32 NW6       30.13F
$$

KYZ024-025-028>034-038-045-046-053-262200-
NORTH CENTRAL KENTUCKY

CITY           SKY/WX    TMP DP  RH WIND       PRES   REMARKS
LOUISVILLE/SDF PTSUNNY   80  50  34 W16       30.11F
LOUISVILLE/LOU MOSUNNY   78  49  35 NW13      30.11F
FORT KNOX      SUNNY     76  50  40 W12       30.11F
$$

KYZ035>037-039>044-047>052-055>060-089>105-262200-
NORTHEAST KENTUCKY

CITY           SKY/WX    TMP DP  RH WIND       PRES   REMARKS
LEXINGTON      MOSUNNY   75  46  35 NW7       30.13F
COVINGTON      PTSUNNY   74  50  42 W12G21    30.10F
FRANKFORT      MOSUNNY   76  47  35 W8        30.11F
$$

KYZ054-064>069-076>088-106>120-262200-
SOUTHEAST KENTUCKY

CITY           SKY/WX    TMP DP  RH WIND       PRES   REMARKS
JACKSON        MOSUNNY   73  49  42 VRB6      30.13F
LONDON         CLOUDY    77  49  37 NW12      30.13F
SOMERSET       MOSUNNY   73  46  38 W8        30.14F
MIDDLESBORO    PTSUNNY   77  53  43 NW6       30.12F
MONTICELLO     PTCLDY    76  53  44 NW9       30.14F
$$





USA.gov is the U.S. government's official web portal to all federal, state and local government web resources and services.